Location: Grub Hill
(32.0863°N, 97.2792°W)
Time: 00:54:06
(UTC+00:00)

Daily predictions for brighter satellites

Satellite Brightness Start Highest point End
(mag) Time Altitude Azimuth Time Altitude Azimuth Time Altitude Azimuth
MOS 1 Rocket 3.9 00:01:43 10° SE 00:05:18 27° ENE 00:08:54 10° NNE
Cosmos 1025 Rocket 3.4 00:01:45 10° N 00:05:51 41° E 00:09:54 10° SSE
Cosmos 1606 2.6 00:03:26 10° SSW 00:06:04 55° W 00:08:45 10° N
IRS-P3 4.4 00:01:23 10° SE 00:06:27 47° ENE 00:11:32 10° N
SJ-12 3.7 00:04:34 10° SSE 00:08:20 63° ENE 00:12:07 10° N
Cosmos 2016 Rocket 4.0 00:04:49 10° S 00:10:57 68° E 00:17:11 10° NNE
CORIOLIS 4.3 00:05:47 10° S 00:11:11 82° WSW 00:16:34 10° NNW
SAR-Lupe-4 3.7 00:08:04 10° S 00:11:38 78° WSW 00:15:13 10° NNW
USA 215 4.0 00:08:49 10° SSE 00:15:13 57° SW 00:21:41 10° NW
Cosmos 909 Rocket 4.3 00:09:35 10° NNW 00:15:37 47° ENE 00:22:05 10° SE
CZ-2D R/B 4.3 00:13:39 10° SE 00:16:58 26° ENE 00:20:22 10° NNE
Cosmos 1378 Rocket 4.2 00:14:20 10° NNW 00:18:34 58° W 00:22:49 10° S
SPOT 1/Viking Rocket 4.1 00:15:33 10° SE 00:20:06 33° ENE 00:24:42 10° N
Cosmos 1943 Rocket 3.9 00:18:31 10° ESE 00:20:12 11° E 00:20:25 11° E
Cosmos 1782 Rocket 3.9 00:16:03 10° SSE 00:20:13 43° E 00:24:24 10° NNE
Cosmos 1818 4.3 00:15:37 10° NW 00:20:57 58° WSW 00:26:13 10° SSE
ARIANE 5 R/B 2.6 00:17:10 10° S 00:22:10 80° WSW 00:27:09 10° NNW
Tiangong 0.2 00:20:46 10° NW 00:22:42 15° N 00:24:28 11° NE
SWARM A 4.4 00:26:27 10° N 00:29:46 74° W 00:33:03 10° S
Cosmos 2061 Rocket 4.0 00:24:13 10° S 00:30:28 63° E 00:36:42 10° NNE
Cosmos 1140 Rocket 3.9 00:26:45 10° S 00:31:34 40° ESE 00:36:23 10° NNE
SKYMED 2 3.5 00:30:39 10° NNE 00:35:01 89° W 00:39:21 10° SSW
Cosmos 1908 Rocket 4.4 00:31:44 10° SSW 00:35:59 52° W 00:40:18 10° N
COSMO-SKYMED 1 2.4 00:31:56 10° NNE 00:36:02 62° E 00:40:05 10° S
Cosmos 1300 Rocket 3.5 00:36:39 10° S 00:41:03 90° N 00:45:27 10° N
Cosmos 1833 Rocket 4.0 00:40:53 10° NNE 00:44:22 19° NE 00:44:22 19° NE
Delta 2 Rocket 3.5 00:43:05 10° W 00:47:00 54° N 00:48:35 31° NE
Cosmos 1975 Rocket 3.7 00:45:33 10° NNE 00:49:24 31° E 00:53:15 10° SE
Cosmos 1441 Rocket 2.7 00:47:22 10° N 00:50:40 60° E 00:53:57 10° SSE
Cosmos 2221 Rocket 4.2 00:46:26 10° NNW 00:50:51 58° W 00:55:12 10° S
VEP-3 3.8 00:42:59 10° W 00:51:24 42° SSW 00:55:45 15° SE
Cosmos 1603 4.3 00:49:44 10° NNW 00:55:17 58° WSW 01:00:46 10° S
Spot 4 Rocket 3.9 00:57:01 10° SSE 01:02:06 80° ENE 01:07:12 10° N
Cosmos 2084 Rocket 3.2 00:58:31 10° SSW 01:02:41 89° ESE 01:04:22 35° NNE
TIMED 4.5 00:59:23 10° S 01:03:31 54° ESE 01:04:17 46° ENE
SJ-7 4.1 01:04:57 10° S 01:08:39 82° WSW 01:12:20 10° NNW
PSLV R/B 3.3 01:08:19 10° SSE 01:12:25 87° W 01:16:30 10° NNW
Cosmos 407 Rocket 3.6 01:08:02 10° S 01:13:04 50° ESE 01:13:35 48° E
Cosmos 1869 3.5 01:10:31 10° S 01:13:09 46° S 01:13:09 46° S
Cosmos 1464 Rocket 4.2 01:13:00 10° SSE 01:19:00 47° E 01:20:09 42° ENE
NOSS 3-4 (A) 3.9 01:13:16 10° NNW 01:20:34 74° ENE 01:28:23 12° SE
NOSS 3-4 (C) 3.9 01:13:21 10° NNW 01:20:39 73° ENE 01:28:09 14° SE
NOAA 6 3.9 01:16:33 10° SSE 01:21:41 76° ENE 01:26:50 10° N
Resurs 1-3 3.7 01:19:00 10° S 01:23:17 71° W 01:27:34 10° NNW
ATLAS CENTAUR R/B 4.0 01:24:43 10° WNW 01:25:33 11° NW 01:26:23 10° NW
Cosmos 2278 Rocket 2.5 01:20:34 10° S 01:25:11 46° SE 01:25:11 46° SE
YAOGAN 1 3.6 01:31:34 10° S 01:35:37 44° W 01:39:41 10° NNW
USA 281 3.5 01:39:32 48° NE 01:39:32 48° NE 01:44:54 10° N
SL-12 R/B(2) 4.2 01:31:14 10° SSW 01:38:44 80° WNW 01:44:53 22° NNE
OAO 2 Rocket 3.7 01:36:18 10° WSW 01:40:43 55° SSW 01:40:43 55° SSW
OAO 3 Copernicus 4.5 01:39:05 10° WSW 01:43:34 69° W 01:43:34 69° W
Cosmos 1072 Rocket 4.3 01:41:04 10° S 01:47:19 90° W 01:49:40 41° N
Cosmos 1943 Rocket 2.7 01:57:35 10° SSW 02:02:00 54° SW 02:02:00 54° SW
Cosmos 1833 Rocket 4.4 02:23:34 10° NNW 02:26:07 26° NW 02:26:07 26° NW
Cosmos 2237 Rocket 4.4 10:18:05 10° SSE 10:22:22 22° E 10:26:38 10° NE
NOSS 3-1 (A) 3.8 10:29:28 41° ESE 10:29:28 41° ESE 10:33:59 10° NE
DELTA 2 R/B (1) 3.8 10:45:20 55° S 10:45:20 55° S 10:50:13 10° SE
Cosmos 1153 Rocket 4.4 10:43:35 10° N 10:49:48 89° W 10:56:04 10° S
Cosmos 1340 Rocket 3.1 11:00:18 55° SE 11:00:18 55° SE 11:03:20 10° SSE
Cosmos 1943 Rocket 4.4 10:55:53 10° N 11:00:07 22° ENE 11:04:18 10° ESE
PAYLOAD A 4.0 10:55:32 10° N 11:00:41 59° WNW 11:00:41 59° WNW
CZ-2C R/B 4.3 10:57:03 10° N 10:58:22 18° N 10:58:22 18° N
Meteor 2-14 Rocket 4.4 10:57:12 10° SSW 11:03:12 59° W 11:09:13 10° N
USA 234 3.9 10:57:05 10° ESE 11:03:22 51° NE 11:08:18 17° NNW
Cosmos 1066 4.5 11:06:39 10° S 11:12:04 78° W 11:17:36 10° N
SL-16 R/B 3.7 11:07:12 10° SSW 11:10:12 24° SW 11:10:12 24° SW
IRS-1D 3.3 11:21:35 10° NNE 11:26:32 89° WNW 11:31:27 10° SSW
UNK 4.2 11:23:10 10° SSW 11:27:20 37° W 11:27:44 36° W
COSMOS 2428 3.4 11:29:57 30° W 11:30:47 31° WNW 11:35:47 10° N
NOSS 0 Rocket 4.1 11:29:28 10° SW 11:35:22 48° WNW 11:41:18 10° N
Cosmos 2100 Rocket 3.9 11:29:41 10° NNW 11:35:42 59° W 11:41:45 10° S
Cosmos 1703 Rocket 3.8 11:36:54 10° SSW 11:41:01 44° W 11:45:12 10° N
Helios 1A Rocket 3.2 11:40:50 10° SSE 11:44:09 54° ENE 11:47:28 10° N
Cosmos 407 Rocket 4.4 11:39:52 10° N 11:44:48 48° ENE 11:49:43 10° SE
Cosmos 1023 Rocket 4.3 11:39:56 10° NNW 11:44:58 70° WSW 11:49:58 10° S
Cosmos 921 Rocket 3.8 11:43:43 22° WNW 11:45:36 31° W 11:49:30 10° SSW
BlueWalker 3 3.7 11:42:58 10° NNW 11:46:01 25° NE 11:49:03 10° E
Cosmos 1980 3.8 11:44:18 10° SW 11:49:45 50° WNW 11:55:15 10° N
